Coleman, TX

4:51 AM CST on February 22, 2017 (GMT -0600)
Coleman Municipal

Weather History for KCOM - June, 2014

Change the Weather History Date:

Sunday, June 29, 2014

  Actual Average (KABI) Record (KABI)
Temperature  
Mean Temperature 84 °F -  
Max Temperature 96 °F 89 °F 108 °F (1907)
Min Temperature 74 °F 69 °F 59 °F (1985)
Cooling Degree Days 20    
Growing Degree Days 34 (Base 50)    
Moisture  
Dew Point 66 °F    
Average Humidity 55    
Maximum Humidity 81    
Minimum Humidity 31    
Precipitation  
Precipitation 0.00 in - - ()
Sea Level Pressure  
Sea Level Pressure 29.96 in    
Wind  
Wind Speed 14 mph (South)    
Max Wind Speed 22 mph    
Max Gust Speed 29 mph    
Visibility 10 miles    
Events      
Averages and records for this station are not official NWS values.
T = Trace of Precipitation, MM = Missing Value Source: NWS Daily Summary

Daily Weather History Graph

Daily Weather History Graph

Search for Another Location

Airport or City:

Trip Planner

Search our weather history database for the weather conditions in past years. The results will help you decide how hot, cold, wet, or windy it might be!

Date:

Astronomy

Jun. 29, 2014 Rise Set
Actual Time 6:34 AM CDT 8:47 PM CDT
Civil Twilight 6:06 AM CDT 9:15 PM CDT
Nautical Twilight 5:32 AM CDT 9:49 PM CDT
Astronomical Twilight 4:55 AM CDT 10:26 PM CDT
Moon 8:44 AM CDT (6/29) 10:19 PM CDT (6/29)
Length of Visible Light 15h 08m
Length of Day
14h 12m
Waxing Crescent, 5% of the Moon is Illuminated
Jun 29
Waxing Crescent
Jul 5
First Quarter
Jul 12
Full
Jul 18
Last Quarter
Jul 26
New

Hourly Weather History & Observations

Time (CDT) Temp. Heat Index Dew Point Humidity Pressure Visibility Wind Dir Wind Speed Gust Speed Precip Events Conditions
12:15 AM 81.1 °F 83.9 °F 67.8 °F 64% 29.93 in 10.0 mi South 17.3 mph 20.7 mph N/A   Clear
12:35 AM 80.8 °F 83.6 °F 68.5 °F 66% 29.93 in 10.0 mi South 13.8 mph 19.6 mph N/A   Clear
12:55 AM 80.6 °F 83.8 °F 69.6 °F 69% 29.93 in 10.0 mi South 13.8 mph - N/A   Clear
1:15 AM 80.4 °F 83.6 °F 70.0 °F 70% 29.94 in 10.0 mi South 16.1 mph 20.7 mph N/A   Scattered Clouds
1:35 AM 80.4 °F 83.8 °F 70.3 °F 71% 29.94 in 10.0 mi South 12.7 mph 19.6 mph N/A   Overcast
1:55 AM 79.9 °F - 70.3 °F 73% 29.94 in 10.0 mi South 12.7 mph 17.3 mph N/A   Overcast
2:15 AM 80.1 °F 83.4 °F 70.7 °F 73% 29.94 in 10.0 mi South 12.7 mph 19.6 mph N/A   Overcast
2:35 AM 79.9 °F - 70.7 °F 73% 29.94 in 10.0 mi South 12.7 mph - N/A   Overcast
2:55 AM 79.7 °F - 70.3 °F 73% 29.94 in 10.0 mi South 12.7 mph - N/A   Overcast
3:15 AM 79.7 °F - 70.0 °F 72% 29.94 in 10.0 mi South 11.5 mph - N/A   Overcast
3:35 AM 79.5 °F - 69.6 °F 72% 29.94 in 10.0 mi South 13.8 mph 18.4 mph N/A   Scattered Clouds
3:55 AM 79.0 °F - 69.3 °F 72% 29.94 in 10.0 mi South 12.7 mph 19.6 mph N/A   Clear
4:15 AM 78.4 °F - 69.3 °F 73% 29.95 in 10.0 mi South 10.4 mph - N/A   Clear
4:35 AM 77.9 °F - 69.1 °F 74% 29.95 in 10.0 mi South 10.4 mph - N/A   Clear
4:55 AM 77.2 °F - 68.9 °F 76% 29.95 in 10.0 mi South 10.4 mph - N/A   Clear
5:15 AM 76.8 °F - 68.9 °F 76% 29.96 in 10.0 mi South 9.2 mph - N/A   Clear
5:35 AM 76.3 °F - 68.9 °F 78% 29.95 in 10.0 mi South 9.2 mph - N/A   Clear
5:55 AM 75.9 °F - 68.5 °F 78% 29.96 in 10.0 mi South 6.9 mph - N/A   Clear
6:15 AM 75.4 °F - 68.4 °F 79% 29.96 in 10.0 mi South 6.9 mph - N/A   Clear
6:35 AM 74.7 °F - 68.2 °F 80% 29.96 in 10.0 mi South 6.9 mph - N/A   Clear
6:55 AM 74.3 °F - 68.2 °F 81% 29.97 in 10.0 mi South 5.8 mph - N/A   Clear
7:15 AM 74.8 °F - 68.4 °F 80% 29.97 in 7.0 mi South 6.9 mph - N/A   Clear
7:35 AM 76.1 °F - 68.5 °F 77% 29.98 in 10.0 mi South 8.1 mph - N/A   Clear
7:55 AM 77.0 °F - 68.5 °F 75% 29.98 in 10.0 mi South 9.2 mph - N/A   Clear
8:15 AM 78.1 °F - 68.4 °F 72% 29.98 in 10.0 mi South 11.5 mph 17.3 mph N/A   Clear
8:35 AM 79.5 °F - 68.4 °F 69% 29.99 in 10.0 mi South 13.8 mph 19.6 mph N/A   Clear
8:55 AM 79.7 °F - 68.2 °F 68% 29.99 in 10.0 mi South 16.1 mph 21.9 mph N/A   Clear
9:15 AM 81.0 °F 83.6 °F 67.6 °F 64% 29.99 in 10.0 mi South 18.4 mph 23.0 mph N/A   Clear
9:35 AM 82.6 °F 85.5 °F 68.0 °F 61% 29.99 in 10.0 mi South 16.1 mph 20.7 mph N/A   Scattered Clouds
9:55 AM 82.8 °F 85.5 °F 67.5 °F 60% 30.00 in 10.0 mi South 13.8 mph 24.2 mph N/A   Scattered Clouds
10:15 AM 83.8 °F 86.3 °F 66.7 °F 56% 30.00 in 10.0 mi South 19.6 mph 26.5 mph N/A   Scattered Clouds
10:35 AM 85.1 °F 87.9 °F 67.1 °F 55% 30.00 in 10.0 mi South 17.3 mph 25.3 mph N/A   Mostly Cloudy
10:55 AM 86.4 °F 89.0 °F 66.9 °F 52% 30.00 in 10.0 mi South 15.0 mph - N/A   Scattered Clouds
11:15 AM 86.7 °F 89.3 °F 66.4 °F 51% 30.00 in 10.0 mi South 15.0 mph 27.6 mph N/A   Scattered Clouds
11:35 AM 88.2 °F 90.6 °F 66.2 °F 48% 30.01 in 10.0 mi South 16.1 mph 25.3 mph N/A   Scattered Clouds
11:55 AM 88.5 °F 90.8 °F 65.7 °F 47% 30.01 in 10.0 mi South 17.3 mph 26.5 mph N/A   Clear
12:15 PM 90.1 °F 92.3 °F 65.8 °F 44% 30.01 in 10.0 mi South 19.6 mph 28.8 mph N/A   Scattered Clouds
12:35 PM 90.0 °F 92.0 °F 65.5 °F 44% 30.01 in 10.0 mi South 17.3 mph 23.0 mph N/A   Scattered Clouds
12:55 PM 91.4 °F 93.6 °F 65.5 °F 42% 30.01 in 10.0 mi South 16.1 mph - N/A   Scattered Clouds
1:15 PM 92.1 °F 94.0 °F 64.8 °F 40% 30.01 in 10.0 mi South 16.1 mph 27.6 mph N/A   Clear
1:35 PM 92.5 °F 94.6 °F 64.9 °F 40% 30.00 in 10.0 mi South 17.3 mph 21.9 mph N/A   Clear
1:55 PM 93.2 °F 94.9 °F 64.4 °F 38% 30.00 in 10.0 mi South 20.7 mph 26.5 mph N/A   Clear
2:15 PM 93.4 °F 94.7 °F 63.9 °F 37% 29.99 in 10.0 mi South 17.3 mph 25.3 mph N/A   Clear
2:35 PM 93.9 °F 95.6 °F 63.7 °F 37% 29.99 in 10.0 mi South 20.7 mph 27.6 mph N/A   Clear
2:55 PM 94.6 °F 95.9 °F 63.3 °F 35% 29.98 in 10.0 mi South 18.4 mph 27.6 mph N/A   Clear
3:15 PM 95.2 °F 96.3 °F 62.8 °F 34% 29.98 in 10.0 mi SSW 18.4 mph 27.6 mph N/A   Clear
3:35 PM 95.2 °F 96.3 °F 62.4 °F 34% 29.97 in 10.0 mi South 17.3 mph 26.5 mph N/A   Clear
3:55 PM 94.8 °F 95.8 °F 62.4 °F 34% 29.96 in 10.0 mi South 17.3 mph 25.3 mph N/A   Clear
4:15 PM 95.5 °F 96.5 °F 61.9 °F 33% 29.96 in 10.0 mi South 18.4 mph 26.5 mph N/A   Clear
4:35 PM 95.4 °F 95.7 °F 61.5 °F 32% 29.96 in 10.0 mi South 13.8 mph 26.5 mph N/A   Clear
4:55 PM 95.4 °F 95.7 °F 60.8 °F 32% 29.96 in 10.0 mi South 21.9 mph 26.5 mph N/A   Clear
5:15 PM 95.7 °F 95.9 °F 60.6 °F 31% 29.95 in 10.0 mi South 20.7 mph 26.5 mph N/A   Clear
5:35 PM 95.5 °F 95.6 °F 60.1 °F 31% 29.94 in 10.0 mi South 19.6 mph 24.2 mph N/A   Clear
5:55 PM 95.4 °F 95.3 °F 60.4 °F 31% 29.94 in 10.0 mi SSE 19.6 mph 24.2 mph N/A   Clear
6:15 PM 95.2 °F 95.1 °F 60.4 °F 31% 29.93 in 10.0 mi South 13.8 mph 23.0 mph N/A   Clear
6:35 PM 95.0 °F 95.2 °F 60.6 °F 32% 29.93 in 10.0 mi South 18.4 mph 25.3 mph N/A   Clear
6:55 PM 94.5 °F 94.0 °F 59.9 °F 31% 29.93 in 10.0 mi South 17.3 mph 24.2 mph N/A   Clear
7:15 PM 94.1 °F 94.2 °F 61.0 °F 33% 29.93 in 10.0 mi South 16.1 mph 24.2 mph N/A   Clear
7:35 PM 93.2 °F 93.3 °F 60.8 °F 34% 29.93 in 10.0 mi South 15.0 mph 24.2 mph N/A   Clear
7:55 PM 91.8 °F 91.5 °F 60.6 °F 35% 29.93 in 10.0 mi South 17.3 mph 23.0 mph N/A   Clear
8:15 PM 90.9 °F 91.3 °F 61.7 °F 38% 29.93 in 10.0 mi South 15.0 mph 20.7 mph N/A   Clear
8:35 PM 89.8 °F 90.0 °F 61.9 °F 39% 29.93 in 10.0 mi South 15.0 mph - N/A   Clear
8:55 PM 88.7 °F 89.1 °F 62.2 °F 41% 29.93 in 10.0 mi South 10.4 mph - N/A   Clear
10:35 PM 84.6 °F 86.3 °F 65.3 °F 52% 29.96 in 10.0 mi SSE 12.7 mph - N/A   Clear
10:55 PM 84.2 °F 86.1 °F 65.1 °F 53% 29.96 in 10.0 mi South 13.8 mph - N/A   Clear
11:15 PM 83.8 °F 85.8 °F 65.5 °F 54% 29.96 in 10.0 mi SSE 13.8 mph 20.7 mph N/A   Clear
11:35 PM 83.5 °F 85.7 °F 66.2 °F 56% 29.96 in 10.0 mi South 12.7 mph - N/A   Clear
11:55 PM 82.8 °F 85.3 °F 66.9 °F 59% 29.97 in 10.0 mi South 12.7 mph - N/A   Clear